Location: Rotheul
(50.2849°N, 11.2349°E)
Time: 00:16:37
(UTC+02:00)

ISS - Pass Details

Date: 16 September 2018
Orbit: 403 x 408 km, 51.6° (Epoch: 23 September)

Event Time Altitude Azimuth Distance (km) Brightness Sun altitude
Exits shadow 04:10:54 16° 113° (ESE) 1,170 -1.2 -24.4°
Drops below altitude 10° 04:11:43 - 112° (ESE) 1,502 -0.6 -24.3°
Sets 04:13:41 0° 111° (ESE) 2,317 0.4 -24.1°
